Temperature
23 22 22 22 23 26 27 27 29 28 29 29 29 29 27 26 24 22 22 22 21 21 21 21 21 21 20 20 20 20 20 20 20 19 19 19 19 19 19 19 19 19 19 19 19 19 19 19 19
23 22 22 23 25 26 26 28 28 29 30 29 29 28 27 25 24 22 22 22 21 20 21 21 21 20 20 20 20 20 20 20 20 19 19 19 19 19 19 19 19 19 19 19 19 19 19 19 19
23 23 24 24 27 26 27 28 28 29 29 29 28 27 26 25 24 22 22 21 21 20 20 21 20 20 20 20 20 20 20 20 20 20 19 19 19 19 19 19 19 19 19 19 19 19 19 19 19
24 25 25 26 27 28 28 28 29 29 29 29 28 26 25 24 24 22 22 22 21 20 20 21 20 20 20 20 20 20 20 20 20 20 19 19 19 19 19 19 19 19 19 19 19 19 19 18 18
25 26 25 26 27 29 29 29 29 28 29 28 26 25 24 23 23 22 22 22 21 20 20 21 20 20 20 20 20 20 20 20 20 19 19 19 19 19 19 19 19 19 19 19 19 19 19 18 18
27 26 24 25 27 28 28 28 28 28 28 27 26 25 24 23 23 23 23 22 22 20 20 20 20 20 20 20 20 20 20 19 19 19 19 19 19 19 19 19 19 19 19 19 19 19 19 18 18
27 26 25 26 26 27 28 28 27 27 26 26 26 25 23 23 23 23 23 22 22 21 20 21 20 20 20 20 20 20 19 19 19 19 19 19 19 19 19 19 19 19 19 19 19 19 19 19 18
27 27 26 25 25 26 28 27 26 25 25 24 23 23 22 22 22 22 22 22 22 21 21 20 20 20 20 20 20 19 19 19 19 19 19 19 19 19 19 19 19 19 19 19 19 19 19 19 18
28 26 23 25 25 26 27 27 25 24 23 22 21 21 21 21 21 22 21 22 21 21 21 20 20 19 19 19 19 19 19 19 19 19 19 19 19 19 19 19 19 19 19 19 19 19 19 18 18
29 25 25 26 26 25 24 24 24 23 21 21 20 20 20 20 20 20 20 20 20 20 20 20 20 20 19 19 19 19 19 19 19 19 19 19 19 18 18 18 18 18 19 19 19 19 19 19 18
28 27 27 27 27 26 24 22 21 22 20 19 19 19 19 19 19 19 19 19 19 19 20 20 20 20 20 19 19 19 19 19 19 18 18 18 18 18 18 18 18 18 19 19 19 19 19 19 18
28 27 27 27 26 25 24 22 20 19 18 18 18 19 19 19 19 19 18 18 19 19 19 19 20 20 19 19 19 19 19 19 19 19 18 18 18 18 18 18 18 18 18 18 18 18 18 18 18
27 26 25 25 24 23 22 21 20 19 18 18 19 19 19 19 19 18 18 18 18 18 18 19 19 19 19 19 19 19 19 19 19 19 18 18 18 18 18 18 18 18 18 18 18 18 18 18 19
27 26 26 25 24 24 22 21 20 19 19 19 19 19 19 18 18 18 18 18 18 18 18 18 18 18 19 19 19 19 19 19 18 18 18 18 18 18 18 18 18 18 18 18 18 18 18 19 19
27 27 26 25 25 24 23 21 20 19 20 19 19 19 19 19 19 18 18 17 17 17 17 17 17 17 18 18 18 18 18 18 18 18 18 18 18 18 18 18 18 18 18 18 18 18 19 19 19
28 27 24 24 25 24 24 20 20 20 20 20 20 19 19 19 19 18 17 17 17 17 17 17 17 17 17 17 17 18 18 18 18 18 18 18 18 18 18 18 18 18 18 18 18 18 18 19 19
27 25 22 23 25 25 24 20 20 20 20 20 20 20 20 19 18 18 17 16 16 16 16 16 16 16 16 16 17 17 17 17 18 18 18 18 18 18 18 18 18 18 18 18 18 18 18 18 18
26 25 25 24 24 24 23 21 21 20 20 20 20 20 19 19 18 17 16 16 16 15 15 15 15 15 15 16 16 16 17 17 17 17 17 17 18 18 18 18 18 18 18 18 18 18 18 18 18
27 27 26 25 24 24 23 21 21 20 20 20 19 19 19 18 17 16 16 15 15 15 15 15 15 15 15 15 15 15 16 16 16 17 17 17 17 17 17 17 18 18 18 18 18 18 18 18 18
27 27 26 25 24 24 23 22 21 20 20 19 19 18 18 17 16 16 15 14 14 14 14 14 14 14 14 14 14 15 15 15 16 16 16 17 17 17 17 17 17 17 17 17 17 17 17 17 17
26 26 25 24 24 24 23 21 20 20 20 19 18 18 17 16 16 15 14 14 13 13 13 13 13 13 14 14 14 14 14 15 15 16 16 16 16 16 17 17 17 17 17 17 17 17 17 17 17
25 24 24 24 23 23 23 21 20 20 20 19 18 17 16 16 15 14 14 13 13 13 13 13 13 13 13 13 14 14 14 14 14 15 15 16 16 16 16 16 17 17 17 17 17 17 17 17 17
24 24 23 23 23 23 23 22 20 20 18 18 18 17 16 15 14 14 13 13 13 12 13 13 13 13 13 13 13 13 14 14 14 15 15 15 16 16 16 16 16 16 16 17 16 16 17 16 17
24 24 24 24 23 22 23 22 19 18 18 18 17 16 16 15 14 14 13 13 13 12 12 13 13 13 13 13 13 13 13 14 14 14 15 15 15 15 15 16 16 16 16 16 16 16 16 16 16
24 24 23 23 22 22 22 22 18 18 18 18 17 16 15 15 14 13 13 12 12 12 12 12 12 12 13 13 13 13 13 13 14 14 14 14 15 15 15 15 15 16 16 16 16 16 16 16 16
24 24 22 21 22 22 22 21 18 19 18 17 17 16 15 15 14 13 13 13 12 12 12 12 12 12 12 12 13 13 13 13 13 13 14 14 14 14 15 15 15 15 15 15 16 16 16 16 16
23 23 23 22 23 23 22 20 18 19 18 18 17 16 15 15 14 14 13 13 13 12 12 12 12 12 12 12 12 12 13 13 13 13 13 14 14 14 14 14 15 15 15 15 15 15 15 15 15
23 23 23 22 21 21 22 21 19 18 18 18 17 16 15 15 14 14 13 13 13 13 12 12 12 12 12 12 12 12 12 13 13 13 13 13 14 14 14 14 14 14 14 15 15 15 15 15 15
23 23 23 22 22 21 20 19 19 18 18 17 17 16 15 15 14 14 14 13 13 13 13 12 12 12 12 12 12 12 12 12 12 12 13 13 13 13 13 13 14 14 14 14 14 14 14 15 15
22 22 21 21 21 22 20 18 19 19 18 17 17 16 16 15 15 14 14 14 13 13 13 12 12 12 12 12 12 12 12 12 12 12 12 12 13 13 13 13 13 13 13 13 14 14 14 14 14
Wind_Speed
9 10 7 3 3 2 12 11 12 10 10 11 10 10 14 14 9 8 5 11 18 17 16 15 13 13 12 11 10 10 9 8 8 7 6 5 5 4 4 4 4 4 4 4 4 5 5 5 5
10 8 5 4 1 8 10 9 11 12 11 9 11 15 16 15 14 9 7 13 17 17 16 15 14 13 12 11 10 9 9 8 8 7 6 6 5 5 4 4 4 4 4 4 4 4 4 4 4
11 8 4 3 7 10 9 9 10 12 12 11 13 15 11 9 13 9 11 14 15 14 15 16 14 12 11 10 9 9 8 8 7 7 6 5 5 4 4 3 3 4 4 4 4 4 4 4 4
6 4 4 1 12 11 9 10 10 12 14 15 13 12 12 11 12 13 13 14 14 14 16 15 13 12 11 10 9 8 8 7 7 6 5 5 5 4 4 3 3 3 4 4 4 4 3 4 3
5 2 1 6 10 11 10 12 13 13 15 17 18 16 14 14 14 13 11 13 13 14 16 15 13 12 10 10 9 8 8 7 7 6 6 5 5 4 4 3 4 4 4 4 4 3 3 2 2
3 1 3 4 9 10 11 13 13 13 15 15 15 16 12 12 10 8 8 8 11 14 15 16 14 13 11 11 10 9 9 8 7 7 6 6 5 5 5 4 4 4 4 4 3 3 2 2 1
4 0 2 4 7 8 10 12 14 13 16 15 11 12 10 11 7 6 6 6 8 11 13 15 15 14 13 12 12 11 10 9 8 8 8 7 7 6 6 6 5 5 4 4 3 3 2 2 2
4 3 3 3 6 6 10 14 14 15 14 15 13 9 7 6 6 7 7 6 5 6 7 10 14 15 15 15 15 14 13 11 10 9 9 9 8 8 9 9 8 7 6 5 4 4 3 4 4
4 3 2 2 4 5 9 11 11 13 15 17 16 13 10 9 9 9 8 7 7 7 4 3 3 6 10 14 16 16 14 13 12 11 11 10 11 12 12 12 12 10 8 7 6 6 6 6 7
0 3 3 6 8 9 13 12 7 10 14 13 14 14 12 11 11 11 10 10 10 9 9 8 6 3 0 4 11 13 13 13 13 12 13 13 14 13 12 15 15 13 10 9 9 9 9 10 10
5 4 6 8 9 11 10 12 14 9 10 10 11 12 12 13 13 11 10 9 9 9 9 9 9 8 6 2 3 6 8 10 12 13 14 14 13 9 9 11 13 12 12 11 12 11 11 13 13
6 9 9 9 9 10 10 9 11 14 8 7 9 9 10 11 10 10 9 8 7 9 9 9 8 7 7 6 3 1 3 4 6 10 12 12 6 4 5 7 11 12 11 11 11 11 14 15 14
9 8 11 13 15 16 16 14 11 10 7 7 8 9 10 10 9 8 8 7 7 6 6 7 7 6 6 5 4 3 1 2 5 7 8 9 5 4 4 4 7 9 11 10 6 8 8 7 7
9 10 9 10 11 10 13 11 8 8 6 6 7 8 8 8 8 8 9 9 8 7 6 5 6 5 4 4 4 4 3 3 3 3 6 7 6 4 3 4 3 5 6 8 8 6 5 3 3
9 9 8 7 8 10 8 10 8 5 4 6 6 6 7 7 6 8 9 8 8 8 7 5 5 4 4 5 4 3 3 4 3 3 6 7 6 6 4 4 3 3 6 7 6 6 5 4 4
8 9 5 2 2 3 2 6 7 5 4 5 6 5 5 6 9 9 10 9 9 8 7 6 7 6 5 5 5 3 4 3 4 5 6 7 7 7 4 4 3 3 4 3 3 3 2 3 3
5 4 2 3 1 0 5 7 6 5 5 6 6 6 7 8 11 11 11 11 10 9 8 7 6 6 5 5 4 4 4 3 4 5 5 6 8 8 5 4 3 4 2 2 3 3 2 3 3
5 6 4 5 4 4 6 6 5 4 5 7 8 9 9 11 11 12 12 11 10 10 10 9 7 6 5 5 4 4 4 4 3 4 5 7 7 7 5 3 4 4 3 2 2 2 2 1 2
11 10 9 5 5 3 3 5 5 5 6 8 10 10 12 13 13 12 12 12 12 11 11 10 9 7 5 3 4 4 5 4 4 3 5 6 6 6 5 5 5 5 5 5 4 3 3 2 2
10 10 8 4 5 2 1 4 6 5 5 7 9 11 12 13 13 13 13 12 13 12 12 11 10 9 8 4 4 4 5 5 5 4 4 6 6 6 5 5 5 6 5 6 6 4 3 3 2
10 8 8 7 3 4 4 5 8 6 6 8 9 10 12 13 14 14 13 13 12 12 12 12 10 10 8 7 5 5 4 4 4 4 5 5 5 6 5 5 6 6 6 6 7 7 6 4 3
8 7 7 7 7 6 6 2 9 6 6 9 10 11 11 11 12 12 12 13 13 13 12 12 11 10 9 8 6 6 5 5 5 5 5 5 4 5 6 6 6 7 6 7 8 8 6 6 5
6 7 8 9 9 9 6 3 7 5 7 10 10 11 11 12 12 12 12 12 12 13 12 11 11 10 9 8 7 6 5 5 5 5 5 5 4 4 5 5 6 7 7 7 7 7 7 7 6
6 9 10 9 8 7 2 2 6 5 8 9 10 11 11 11 11 11 11 11 11 11 11 11 10 10 9 8 7 6 6 6 6 6 5 4 3 2 3 3 4 5 6 7 8 8 9 8 8
6 8 5 5 6 1 3 2 6 7 7 7 8 9 10 9 10 11 12 11 11 11 11 11 11 10 10 10 8 7 7 6 5 5 5 4 3 2 2 2 3 4 4 5 6 7 8 8 8
7 6 6 6 5 1 4 3 7 6 5 5 6 7 8 9 9 10 10 9 9 10 10 10 10 10 10 10 9 9 9 6 5 6 5 4 3 3 2 2 2 2 3 3 4 4 6 6 7
7 7 6 6 9 6 4 7 7 5 5 6 7 8 9 9 9 9 9 9 9 9 9 9 10 10 10 11 10 9 9 9 8 8 7 5 5 4 3 2 2 1 1 2 2 2 2 3 5
2 5 5 5 6 5 2 4 4 4 5 6 7 7 8 8 9 8 7 8 8 8 8 8 9 10 9 10 9 9 8 8 8 8 9 8 8 7 7 6 5 4 3 2 2 1 1 2 2
5 4 4 5 2 4 4 4 5 5 4 5 6 6 6 7 7 7 6 6 6 7 7 8 8 9 9 8 8 9 9 9 9 9 9 8 8 9 8 7 6 6 6 5 4 2 1 1 2
2 5 6 5 6 3 3 3 5 4 3 3 4 5 5 5 5 5 6 6 6 7 7 8 8 8 7 7 8 8 8 9 9 9 9 9 9 9 9 8 8 8 7 6 5 3 3 2 2
Wind_Direction
222 223 226 251 257 77 59 51 49 36 39 44 43 64 71 59 57 88 157 134 120 121 128 131 128 125 122 120 119 120 123 126 128 128 127 128 129 126 113 102 95 89 80 74 69 70 71 69 69
246 219 231 248 307 69 61 55 54 42 41 62 56 57 67 64 78 102 126 113 121 125 137 134 134 131 129 128 126 125 125 126 127 128 129 128 127 124 116 106 101 97 92 88 83 76 76 77 74
255 237 246 244 62 65 61 52 50 52 46 61 77 61 50 54 83 108 119 126 123 126 127 129 139 137 137 136 135 134 134 134 133 132 133 134 134 130 125 118 110 104 100 97 95 91 87 88 84
247 235 256 66 77 70 66 64 52 53 56 60 69 70 61 57 89 114 132 130 122 123 123 134 142 145 146 146 147 148 148 149 150 149 148 144 142 141 140 138 134 122 113 105 101 102 99 98 94
241 262 22 74 77 67 59 64 65 53 52 64 79 83 73 68 89 115 131 127 131 130 131 141 148 153 157 159 161 164 166 167 168 167 165 162 162 162 157 155 149 142 131 117 111 110 113 111 106
276 17 51 89 85 68 55 58 61 55 50 52 81 90 80 73 84 103 115 127 131 133 137 144 156 163 168 173 176 177 179 183 182 179 177 178 180 179 176 170 159 152 141 131 124 126 135 139 145
289 253 131 98 82 66 64 64 62 59 47 37 61 87 84 65 59 83 95 102 118 134 140 153 164 173 180 184 185 187 188 192 192 189 189 190 191 190 189 183 178 171 160 154 152 156 166 179 203
294 325 44 72 94 68 64 63 59 56 51 39 43 68 73 53 55 67 61 62 83 115 143 161 170 177 182 188 192 192 194 197 200 200 199 199 201 203 202 197 189 183 181 182 182 188 197 208 222
271 41 45 50 98 67 60 74 68 63 60 55 53 56 55 45 49 53 48 38 34 35 33 74 151 170 186 186 190 193 196 200 203 207 209 207 212 209 205 209 188 186 193 198 200 205 214 224 229
309 65 63 69 91 89 60 46 43 71 50 41 44 41 39 45 46 44 39 30 23 18 11 18 17 29 352 202 177 189 193 195 204 210 204 209 223 219 206 193 183 188 197 204 210 214 221 231 231
53 73 75 73 92 106 90 59 35 75 50 29 27 29 31 36 40 37 37 30 21 14 14 9 8 3 1 358 163 186 180 189 207 220 208 210 226 216 185 170 178 191 201 209 210 214 225 228 226
75 53 64 67 64 75 77 78 61 56 53 36 37 35 37 37 36 32 29 23 20 15 5 357 359 360 354 352 352 213 183 188 209 222 222 210 218 226 210 189 182 189 199 209 201 209 220 227 225
103 93 86 86 85 87 87 84 79 62 55 47 43 39 35 32 26 27 25 18 17 17 2 352 349 349 348 348 336 321 294 222 218 214 230 210 198 213 226 222 192 192 195 194 210 220 228 222 227
126 130 125 116 107 101 96 84 71 55 47 45 41 38 28 23 18 17 19 7 3 4 354 342 341 339 332 328 325 324 325 312 283 252 241 232 208 207 213 228 212 203 206 188 193 221 242 227 225
141 154 145 138 136 143 123 77 61 44 37 37 28 35 22 13 11 20 13 1 355 349 341 340 323 333 329 318 308 306 289 279 270 256 255 256 227 216 222 224 225 212 220 212 196 223 227 214 211
205 197 157 88 109 186 247 85 66 29 24 33 20 20 15 16 10 18 9 356 351 342 335 331 332 336 328 320 304 286 279 269 255 247 239 245 242 224 216 223 230 240 237 225 192 219 217 220 211
229 268 147 162 115 101 72 88 72 37 13 20 13 8 13 14 12 13 7 356 348 337 332 333 339 329 322 309 291 282 275 258 252 248 239 242 247 239 217 211 212 233 251 241 222 199 207 224 224
318 290 256 165 92 67 85 104 92 53 21 13 8 6 11 11 8 7 2 354 347 342 338 335 331 322 315 309 307 302 285 266 241 238 238 238 242 242 228 210 203 210 220 233 250 208 211 227 233
316 310 309 98 101 52 86 118 102 61 32 19 11 5 10 6 358 4 358 353 347 346 343 334 329 325 319 314 310 304 298 293 278 256 247 241 238 235 224 217 207 207 207 208 218 221 217 226 249
302 300 313 85 93 15 210 158 119 91 60 35 14 7 8 1 356 360 356 353 348 346 342 332 336 334 330 317 303 287 288 284 276 270 258 243 238 233 227 213 208 206 207 207 206 204 207 209 209
317 341 344 333 318 249 242 196 144 129 83 50 26 15 9 0 357 355 354 352 348 347 342 335 335 331 329 327 313 304 299 291 284 279 271 255 240 231 224 217 209 205 200 204 202 198 193 201 210
325 20 334 302 284 256 213 243 137 129 68 41 27 17 7 3 357 358 357 354 352 349 343 340 338 335 334 331 324 319 305 299 296 295 285 273 250 233 221 216 213 210 202 200 205 200 194 191 204
329 326 291 277 268 273 247 257 123 94 36 25 19 14 10 7 1 1 359 354 355 352 349 344 344 343 339 335 329 324 315 307 304 306 302 293 269 247 227 217 214 214 211 203 202 198 197 198 199
288 277 256 242 253 257 252 268 101 57 27 13 11 13 10 6 2 2 357 356 357 356 353 351 351 352 350 343 341 336 327 324 325 322 323 315 302 279 255 230 219 216 210 208 208 203 203 203 203
279 307 291 235 213 145 65 59 82 65 43 20 11 12 9 6 3 360 0 359 357 357 357 358 358 359 359 358 356 354 353 345 337 330 322 329 325 310 294 258 224 218 216 208 202 200 205 207 205
318 315 326 321 333 96 163 92 103 83 70 38 26 18 11 10 5 3 3 358 357 357 0 5 4 3 2 3 5 10 10 4 360 354 352 354 345 331 322 305 257 205 196 203 199 197 206 197 199
327 347 345 301 289 285 125 112 124 107 66 37 25 17 12 11 10 8 5 0 1 1 5 9 9 10 11 11 12 16 15 15 17 12 11 11 4 360 9 20 35 52 113 122 143 178 197 188 195
322 317 305 301 337 327 96 98 90 64 36 26 22 17 12 11 10 8 7 3 5 2 4 18 23 21 16 15 16 21 19 19 19 21 18 15 12 18 28 36 40 42 57 82 96 118 196 188 188
343 327 336 300 298 328 347 66 68 59 40 24 20 21 19 15 11 5 3 1 4 8 10 21 25 23 19 16 17 22 22 23 22 22 18 16 18 23 28 34 40 45 47 50 58 49 78 140 156
358 359 341 331 346 322 308 102 93 88 71 47 24 15 16 17 12 10 6 8 11 12 16 20 23 24 21 17 19 25 25 25 26 23 20 20 25 25 27 30 37 40 43 47 50 42 45 77 119
Height
1511 1512 1513 1515 1516 1515 1518 1513 1507 1506 1504 1504 1504 1506 1511 1516 1522 1533 1534 1535 1535 1535 1538 1540 1542 1544 1545 1547 1548 1550 1551 1552 1554 1555 1556 1557 1558 1559 1560 1561 1561 1562 1563 1563 1564 1564 1565 1565 1566
1511 1514 1516 1516 1516 1525 1524 1512 1510 1508 1506 1506 1508 1510 1513 1519 1525 1530 1533 1536 1537 1537 1539 1541 1543 1545 1546 1548 1549 1550 1552 1553 1554 1555 1556 1557 1558 1559 1560 1561 1561 1562 1563 1563 1564 1564 1565 1565 1566
1512 1516 1517 1514 1515 1524 1523 1512 1510 1509 1508 1508 1511 1515 1520 1525 1528 1532 1535 1537 1539 1540 1541 1542 1544 1545 1547 1548 1550 1551 1552 1553 1554 1556 1557 1558 1559 1559 1560 1561 1562 1562 1563 1563 1564 1565 1565 1566 1566
1515 1517 1515 1514 1518 1516 1514 1512 1511 1511 1511 1511 1513 1520 1527 1529 1531 1534 1537 1539 1541 1542 1542 1544 1545 1546 1548 1549 1550 1551 1552 1553 1555 1556 1557 1558 1559 1559 1560 1561 1562 1562 1563 1563 1564 1564 1565 1566 1566
1516 1516 1517 1520 1518 1513 1511 1512 1514 1514 1514 1516 1520 1526 1531 1534 1535 1537 1539 1541 1542 1543 1543 1545 1546 1547 1548 1549 1550 1551 1552 1553 1554 1555 1556 1557 1558 1559 1560 1561 1561 1562 1563 1563 1564 1564 1565 1565 1566
1517 1515 1526 1529 1521 1517 1516 1516 1517 1519 1519 1520 1523 1528 1535 1538 1538 1540 1541 1542 1543 1544 1544 1545 1547 1547 1548 1549 1550 1551 1552 1553 1554 1555 1556 1557 1558 1559 1560 1560 1561 1562 1562 1563 1563 1564 1564 1565 1566
1517 1517 1525 1523 1524 1521 1518 1519 1521 1523 1524 1526 1527 1530 1537 1539 1541 1542 1543 1544 1544 1545 1545 1545 1546 1547 1548 1549 1550 1551 1552 1553 1554 1554 1555 1556 1557 1558 1559 1560 1560 1561 1562 1562 1563 1563 1564 1565 1565
1516 1515 1523 1525 1527 1526 1521 1523 1526 1528 1530 1532 1531 1535 1540 1542 1542 1543 1544 1545 1545 1546 1546 1545 1545 1546 1547 1548 1549 1550 1551 1552 1553 1554 1554 1555 1556 1557 1558 1559 1559 1560 1561 1561 1562 1563 1563 1564 1565
1516 1522 1533 1527 1526 1526 1523 1526 1531 1534 1536 1537 1538 1541 1543 1543 1543 1543 1544 1544 1545 1546 1546 1546 1546 1546 1546 1546 1547 1548 1549 1550 1551 1552 1553 1554 1555 1556 1557 1557 1558 1559 1560 1560 1561 1562 1563 1564 1564
1516 1527 1527 1521 1522 1527 1530 1532 1533 1537 1540 1542 1543 1544 1544 1544 1544 1544 1544 1544 1544 1544 1545 1545 1545 1545 1545 1546 1546 1547 1547 1548 1549 1550 1551 1552 1553 1554 1555 1556 1557 1558 1558 1559 1560 1561 1562 1563 1564
1518 1523 1522 1523 1525 1528 1533 1537 1539 1539 1545 1548 1548 1547 1546 1545 1545 1545 1545 1545 1545 1544 1544 1544 1544 1544 1544 1544 1544 1544 1545 1546 1547 1548 1549 1550 1551 1553 1554 1554 1556 1556 1557 1557 1558 1559 1560 1561 1562
1521 1523 1524 1527 1529 1530 1534 1540 1544 1547 1551 1551 1550 1549 1548 1547 1547 1547 1546 1545 1545 1544 1543 1542 1542 1543 1542 1542 1543 1542 1543 1544 1545 1546 1547 1548 1549 1550 1551 1553 1553 1554 1555 1555 1556 1558 1559 1561 1562
1523 1528 1530 1532 1534 1537 1540 1544 1548 1551 1552 1552 1551 1550 1550 1549 1549 1548 1548 1546 1545 1544 1542 1541 1541 1540 1540 1540 1540 1539 1540 1541 1542 1543 1544 1545 1546 1547 1549 1551 1552 1552 1553 1554 1556 1557 1558 1560 1562
1524 1528 1531 1533 1536 1538 1541 1546 1550 1553 1553 1553 1552 1552 1551 1551 1550 1549 1548 1547 1545 1543 1542 1540 1539 1538 1537 1536 1536 1536 1536 1537 1538 1539 1541 1542 1543 1544 1545 1547 1548 1550 1551 1553 1554 1555 1557 1559 1561
1524 1527 1530 1533 1535 1538 1539 1548 1553 1554 1554 1554 1553 1552 1552 1551 1550 1549 1548 1547 1545 1543 1541 1539 1537 1536 1535 1534 1533 1533 1533 1534 1534 1535 1536 1537 1538 1540 1541 1543 1544 1546 1548 1550 1552 1553 1555 1557 1558
1522 1526 1536 1535 1534 1536 1540 1553 1554 1555 1554 1554 1554 1553 1552 1552 1551 1549 1548 1546 1544 1542 1540 1538 1536 1534 1532 1531 1530 1529 1529 1529 1529 1529 1531 1531 1533 1535 1537 1538 1539 1542 1544 1546 1548 1550 1552 1554 1556
1525 1534 1541 1540 1535 1534 1539 1552 1555 1555 1555 1554 1554 1553 1552 1552 1551 1550 1548 1546 1543 1541 1538 1536 1533 1531 1529 1528 1527 1526 1525 1525 1525 1525 1526 1526 1528 1529 1531 1533 1535 1538 1540 1542 1544 1546 1548 1551 1553
1533 1532 1531 1535 1536 1536 1542 1550 1554 1556 1556 1556 1555 1554 1553 1552 1552 1550 1547 1545 1542 1539 1537 1534 1531 1529 1527 1525 1524 1523 1522 1522 1521 1521 1521 1522 1523 1525 1526 1528 1530 1532 1535 1537 1539 1542 1545 1547 1549
1525 1526 1529 1532 1535 1538 1542 1548 1552 1556 1557 1557 1557 1556 1554 1554 1552 1550 1547 1544 1540 1537 1534 1532 1529 1527 1524 1522 1520 1519 1518 1517 1517 1517 1517 1518 1518 1520 1521 1523 1525 1527 1529 1532 1534 1538 1540 1543 1546
1525 1528 1529 1531 1535 1538 1542 1546 1551 1555 1558 1559 1558 1557 1556 1554 1552 1549 1546 1542 1539 1535 1532 1529 1526 1524 1522 1519 1517 1516 1515 1513 1513 1513 1513 1513 1514 1515 1516 1518 1519 1522 1524 1527 1529 1533 1536 1539 1542
1529 1531 1534 1537 1535 1536 1541 1547 1551 1554 1556 1558 1558 1558 1557 1555 1552 1549 1545 1541 1537 1533 1530 1527 1524 1521 1518 1516 1514 1513 1511 1510 1509 1509 1509 1509 1510 1510 1512 1513 1515 1517 1519 1521 1524 1527 1531 1534 1537
1536 1534 1536 1537 1540 1540 1540 1553 1553 1553 1555 1557 1559 1558 1557 1555 1552 1549 1545 1540 1536 1532 1528 1524 1521 1518 1515 1513 1511 1510 1508 1507 1506 1506 1505 1506 1506 1506 1507 1509 1511 1512 1514 1516 1519 1522 1526 1528 1531
1538 1536 1536 1536 1538 1539 1535 1544 1557 1552 1558 1558 1559 1558 1557 1555 1552 1549 1545 1540 1536 1531 1527 1523 1519 1516 1513 1511 1509 1507 1505 1504 1503 1503 1502 1502 1502 1503 1503 1504 1506 1508 1510 1511 1514 1517 1520 1522 1525
1537 1535 1532 1532 1536 1546 1537 1544 1558 1557 1559 1559 1559 1559 1557 1555 1552 1549 1545 1540 1536 1531 1527 1523 1519 1515 1512 1509 1507 1505 1503 1502 1501 1500 1499 1499 1499 1499 1499 1500 1501 1503 1505 1507 1509 1512 1515 1517 1520
1534 1538 1543 1543 1548 1547 1538 1544 1561 1558 1558 1560 1560 1559 1557 1555 1552 1548 1544 1540 1536 1532 1527 1523 1519 1515 1512 1509 1506 1504 1502 1501 1500 1498 1498 1497 1496 1496 1496 1496 1497 1498 1500 1502 1505 1507 1510 1512 1514
1536 1538 1550 1557 1550 1546 1540 1548 1558 1555 1558 1559 1559 1559 1557 1555 1552 1549 1545 1541 1537 1533 1528 1524 1520 1516 1513 1510 1507 1505 1502 1500 1499 1498 1496 1496 1495 1494 1494 1494 1495 1495 1497 1499 1501 1503 1505 1508 1510
1540 1537 1537 1545 1539 1540 1540 1548 1555 1554 1557 1558 1559 1558 1557 1555 1553 1549 1546 1542 1538 1534 1530 1526 1522 1518 1515 1511 1509 1506 1503 1501 1500 1498 1496 1496 1495 1494 1494 1493 1494 1494 1495 1496 1498 1500 1502 1504 1507
1541 1541 1540 1544 1552 1553 1545 1548 1556 1556 1557 1558 1558 1558 1557 1555 1553 1550 1547 1543 1540 1537 1533 1529 1525 1521 1517 1514 1511 1508 1506 1503 1502 1500 1498 1497 1496 1495 1494 1494 1494 1494 1494 1496 1497 1498 1500 1502 1504
1543 1540 1541 1541 1543 1556 1559 1563 1553 1556 1557 1557 1558 1558 1557 1555 1553 1551 1548 1545 1542 1538 1535 1531 1527 1523 1519 1516 1514 1511 1508 1506 1504 1502 1500 1499 1498 1496 1495 1495 1494 1494 1495 1495 1496 1498 1499 1500 1501
1545 1547 1548 1554 1550 1545 1553 1564 1552 1555 1556 1557 1558 1558 1557 1555 1553 1551 1548 1546 1543 1540 1536 1533 1530 1526 1523 1520 1517 1514 1512 1509 1507 1505 1504 1502 1500 1499 1497 1497 1496 1496 1496 1496 1496 1497 1498 1499 1500